This demonstration page uses our WeatherBlox Daily Observations layout. Learn more.

Hourly Observations for December 3, 2017

Temp ( °F °C ) Dew Point ( °F °C ) Humidity (%) Winds ( mph kmh ) Pressure ( in mb ) Visibility ( mi km ) Precip ( " mm )
12:53 am 00:53 Clear 28 -2.2 26 -3.3 92 92 Calm 30.19 1022 8 12.87472 0 0
1:53 am 01:53 Clear 27 -2.8 25 -3.9 92 92 Calm 30.21 1023 7 11.26538 0 0
2:53 am 02:53 Clear 26 -3.3 25 -3.9 96 96 Calm 30.22 1023 8 12.87472 0 0
3:53 am 03:53 Clear with Mist and Fog 26 -3.3 25 -3.9 96 96 Calm 30.2 1023 6 9.65604 0 0
4:53 am 04:53 Clear 26 -3.3 24 -4.4 92 92 Calm 30.22 1023 10 16.0934 0 0
5:53 am 05:53 Clear with Mist and Fog 25 -3.9 24 -4.4 96 96 Calm 30.23 1024 5 8.0467 0 0
6:53 am 06:53 Clear 25 -3.9 23 -5 92 92 Calm 30.25 1024 8 12.87472 0 0
7:53 am 07:53 Sunny 25 -3.9 23 -5 92 92 Calm 30.27 1025 7 11.26538 0 0
8:53 am 08:53 Sunny with Mist and Fog 30 -1.1 29 -1.7 96 96 Calm 30.29 1026 5 8.0467 0 0
9:53 am 09:53 Sunny 37 2.8 34 1.1 89 89 Calm 30.3 1026 9 14.48406 0 0
10:53 am 10:53 Sunny 43 6.1 35 1.7 74 74 Calm 30.29 1026 10 16.0934 0 0
11:53 am 11:53 Sunny 50 10 35 1.7 57 57 Calm 30.28 1026 10 16.0934 0 0
12:53 pm 12:53 Sunny 54 12.2 36 2.2 51 51 Calm 30.25 1025 10 16.0934 0 0
1:53 pm 13:53 Sunny 57 13.9 36 2.2 45 45 Calm 30.24 1024 10 16.0934 0 0
2:53 pm 14:53 Sunny 58 14.4 37 2.8 46 46 VRB 6 9 30.22 1023 10 16.0934 0 0
3:53 pm 15:53 Sunny 58 14.4 37 2.8 46 46 Calm 30.22 1023 10 16.0934 0 0
4:53 pm 16:53 Sunny 53 11.7 36 2.2 52 52 Calm 30.23 1024 10 16.0934 0 0
5:53 pm 17:53 Clear 40 4.4 34 1.1 79 79 Calm 30.24 1024 10 16.0934 0 0
6:53 pm 18:53 Clear 36 2.2 32 0 86 86 Calm 30.24 1024 10 16.0934 0 0
7:53 pm 19:53 Clear 34 1.1 31 -0.6 89 89 Calm 30.25 1024 10 16.0934 0 0
8:53 pm 20:53 Clear 32 0 30 -1.1 92 92 Calm 30.23 1024 10 16.0934 0 0
9:53 pm 21:53 Clear 32 0 29 -1.7 88 88 ESE 3 6 30.23 1024 9 14.48406 0 0
10:53 pm 22:53 Clear 31 -0.6 30 -1.1 96 96 Calm 30.22 1023 8 12.87472 0 0
11:53 pm 23:53 Clear 32 0 30 -1.1 92 92 E 3 6 30.21 1023 8 12.87472 0 0

Powered by AerisWeather